RYR7NW LFBZ-LFRS

Flight info

Callsign RYR7NW
Flight time 0h 46m
Altitude 26000
Route VAVIX DCT CNA DCT MANAK
Aircraft B738/M-SDE2E3FGHIRWXY/LB1

Departure

Time 2026-04-30 12:19
Airport Biarritz Pays Basque airport (LFBZ)

Arrival

Time 2026-04-30 13:06
Airport Nantes Atlantique Airport (LFRS)
Time Latitude Longitude Altitude Speed Heading
2026-04-30 11:54 43.47131 -1.52898 246 ft 0 kts 359°
2026-04-30 12:11 43.47120 -1.52897 246 ft 3 kts
2026-04-30 12:12 43.47101 -1.52901 246 ft 3 kts 20°
2026-04-30 12:12 43.47083 -1.52913 246 ft 3 kts 39°
2026-04-30 12:12 43.47069 -1.52932 246 ft 3 kts 58°
2026-04-30 12:12 43.47060 -1.52957 246 ft 3 kts 74°
2026-04-30 12:13 43.47056 -1.52984 246 ft 3 kts 86°
2026-04-30 12:13 43.47055 -1.53000 246 ft 3 kts 90°
2026-04-30 12:15 43.47055 -1.52999 246 ft 1 kts 90°
2026-04-30 12:15 43.47055 -1.52950 246 ft 10 kts 90°
2026-04-30 12:15 43.47010 -1.52865 246 ft 12 kts 133°
2026-04-30 12:15 43.46993 -1.52756 246 ft 12 kts 89°
2026-04-30 12:16 43.46995 -1.52619 246 ft 16 kts 89°
2026-04-30 12:16 43.46997 -1.52445 246 ft 20 kts 89°
2026-04-30 12:16 43.46999 -1.52267 246 ft 16 kts 90°
2026-04-30 12:16 43.46927 -1.52175 246 ft 16 kts 179°
2026-04-30 12:17 43.46843 -1.51934 248 ft 21 kts 89°
2026-04-30 12:17 43.46846 -1.51691 247 ft 29 kts 89°
2026-04-30 12:17 43.46849 -1.51399 248 ft 31 kts 89°
2026-04-30 12:18 43.46852 -1.51125 248 ft 21 kts 89°
2026-04-30 12:18 43.46880 -1.51003 249 ft 8 kts 59°
2026-04-30 12:18 43.46876 -1.50954 249 ft 4 kts 147°
2026-04-30 12:18 43.46856 -1.50970 248 ft 4 kts 241°
2026-04-30 12:19 43.46854 -1.51015 248 ft 10 kts 269°
2026-04-30 12:19 43.46850 -1.51423 248 ft 99 kts 269°
2026-04-30 12:19 43.46823 -1.52832 661 ft 172 kts 270°
2026-04-30 12:19 43.46793 -1.54595 2016 ft 194 kts 268°
2026-04-30 12:20 43.46774 -1.56451 3450 ft 199 kts 268°
2026-04-30 12:20 43.46754 -1.58434 4776 ft 210 kts 267°
2026-04-30 12:20 43.46796 -1.60483 5805 ft 231 kts 278°
2026-04-30 12:20 43.47545 -1.62534 6466 ft 257 kts 310°
2026-04-30 12:21 43.49142 -1.63848 6863 ft 279 kts 345°
2026-04-30 12:21 43.51096 -1.63825 7054 ft 285 kts 15°
2026-04-30 12:21 43.52927 -1.62700 7545 ft 291 kts 27°
2026-04-30 12:21 43.54767 -1.61464 8738 ft 295 kts 24°
2026-04-30 12:22 43.56667 -1.60337 9993 ft 299 kts 22°
2026-04-30 12:22 43.58578 -1.59067 10830 ft 317 kts 35°
2026-04-30 12:22 43.60271 -1.56891 11154 ft 349 kts 47°
2026-04-30 12:22 43.61966 -1.54341 11799 ft 366 kts 48°
2026-04-30 12:23 43.63663 -1.51736 12803 ft 372 kts 49°
2026-04-30 12:23 43.65413 -1.49064 13718 ft 376 kts 48°
2026-04-30 12:23 43.67181 -1.46388 14061 ft 380 kts 48°
2026-04-30 12:23 43.68988 -1.43675 14799 ft 387 kts 47°
2026-04-30 12:24 43.70822 -1.40932 15758 ft 390 kts 47°
2026-04-30 12:24 43.72681 -1.38157 16680 ft 396 kts 47°
2026-04-30 12:24 43.74565 -1.35344 17549 ft 402 kts 47°
2026-04-30 12:24 43.76484 -1.32476 18401 ft 409 kts 47°
2026-04-30 12:25 43.77774 -1.30548 18889 ft 413 kts 47°
2026-04-30 12:25 43.79738 -1.27615 19645 ft 417 kts 46°
2026-04-30 12:25 43.81836 -1.24806 20405 ft 422 kts 41°
2026-04-30 12:25 43.84056 -1.22125 21175 ft 426 kts 39°
2026-04-30 12:26 43.86336 -1.19468 21914 ft 430 kts 39°
2026-04-30 12:26 43.88652 -1.16777 22629 ft 435 kts 39°
2026-04-30 12:26 43.90973 -1.14054 23337 ft 440 kts 39°
2026-04-30 12:26 43.93303 -1.11291 23971 ft 442 kts 39°
2026-04-30 12:27 43.95630 -1.08507 24157 ft 438 kts 40°
2026-04-30 12:27 43.97927 -1.05741 24186 ft 438 kts 40°
2026-04-30 12:27 44.00231 -1.02957 24176 ft 439 kts 40°
2026-04-30 12:27 44.02538 -1.00164 24125 ft 438 kts 40°
2026-04-30 12:28 44.04797 -0.97427 24094 ft 433 kts 41°
2026-04-30 12:28 44.07039 -0.94708 24084 ft 424 kts 41°
2026-04-30 12:28 44.09248 -0.92027 24077 ft 420 kts 41°
2026-04-30 12:28 44.11454 -0.89347 24089 ft 421 kts 41°
2026-04-30 12:29 44.13659 -0.86665 24091 ft 421 kts 42°
2026-04-30 12:29 44.15867 -0.83977 24087 ft 421 kts 42°
2026-04-30 12:29 44.18074 -0.81288 24091 ft 421 kts 42°
2026-04-30 12:29 44.20279 -0.78598 24090 ft 420 kts 42°
2026-04-30 12:30 44.22474 -0.75918 24090 ft 419 kts 42°
2026-04-30 12:30 44.24639 -0.73273 24089 ft 418 kts 43°
2026-04-30 12:30 44.26860 -0.70658 24083 ft 419 kts 36°
2026-04-30 12:30 44.29473 -0.68877 24090 ft 420 kts 17°
2026-04-30 12:31 44.32327 -0.67962 24100 ft 421 kts 12°
2026-04-30 12:31 44.35201 -0.67202 24089 ft 421 kts 11°
2026-04-30 12:31 44.38083 -0.66477 24087 ft 421 kts 11°
2026-04-30 12:31 44.40972 -0.65750 24086 ft 421 kts 11°
2026-04-30 12:32 44.43853 -0.65011 24086 ft 421 kts 12°
2026-04-30 12:32 44.46737 -0.64255 24084 ft 420 kts 12°
2026-04-30 12:32 44.49613 -0.63488 24090 ft 420 kts 12°
2026-04-30 12:32 44.52476 -0.62717 24083 ft 419 kts 13°
2026-04-30 12:33 44.55309 -0.61948 24082 ft 419 kts 13°
2026-04-30 12:33 44.58170 -0.61169 24082 ft 418 kts 13°
2026-04-30 12:33 44.61028 -0.60389 24079 ft 418 kts 13°
2026-04-30 12:33 44.63893 -0.59606 24078 ft 418 kts 13°
2026-04-30 12:34 44.66742 -0.58827 24082 ft 417 kts 13°
2026-04-30 12:34 44.69596 -0.58046 24077 ft 417 kts 13°
2026-04-30 12:34 44.72445 -0.57266 24079 ft 417 kts 13°
2026-04-30 12:34 44.75292 -0.56485 24080 ft 417 kts 14°
2026-04-30 12:35 44.78142 -0.55703 24078 ft 417 kts 14°
2026-04-30 12:35 44.80987 -0.54921 24077 ft 416 kts 14°
2026-04-30 12:35 44.83829 -0.54140 24078 ft 416 kts 14°
2026-04-30 12:35 44.86638 -0.53367 24080 ft 416 kts 14°
2026-04-30 12:36 44.89477 -0.52585 24079 ft 416 kts 14°
2026-04-30 12:36 44.92314 -0.51802 24081 ft 415 kts 14°
2026-04-30 12:36 44.95150 -0.51019 24074 ft 415 kts 14°
2026-04-30 12:36 44.97982 -0.50237 24075 ft 415 kts 14°
2026-04-30 12:37 45.00817 -0.49453 24085 ft 414 kts 14°
2026-04-30 12:37 45.03646 -0.48670 24085 ft 414 kts 14°
2026-04-30 12:37 45.06471 -0.47886 24078 ft 413 kts 14°
2026-04-30 12:37 45.09293 -0.47104 24090 ft 413 kts 14°
2026-04-30 12:38 45.12117 -0.46319 24089 ft 413 kts 14°
2026-04-30 12:38 45.14932 -0.45537 24084 ft 412 kts 14°
2026-04-30 12:38 45.17745 -0.44754 24092 ft 412 kts 14°
2026-04-30 12:38 45.20558 -0.43970 24092 ft 411 kts 14°
2026-04-30 12:39 45.23328 -0.43198 24091 ft 411 kts 14°
2026-04-30 12:39 45.26142 -0.42413 24089 ft 411 kts 14°
2026-04-30 12:39 45.28945 -0.41629 24102 ft 411 kts 14°
2026-04-30 12:39 45.31758 -0.40842 24114 ft 413 kts 14°
2026-04-30 12:40 45.34588 -0.40049 24094 ft 416 kts 14°
2026-04-30 12:40 45.37424 -0.39254 24093 ft 414 kts 14°
2026-04-30 12:40 45.40251 -0.38462 24088 ft 412 kts 14°
2026-04-30 12:40 45.43054 -0.37676 24094 ft 411 kts 14°
2026-04-30 12:41 45.45867 -0.36885 24096 ft 411 kts 14°
2026-04-30 12:41 45.48682 -0.36092 24100 ft 412 kts 14°
2026-04-30 12:41 45.51459 -0.35310 24097 ft 412 kts 14°
2026-04-30 12:41 45.54270 -0.34517 24101 ft 412 kts 14°
2026-04-30 12:42 45.57119 -0.33713 24102 ft 412 kts 14°
2026-04-30 12:42 45.59900 -0.32927 24099 ft 412 kts 14°
2026-04-30 12:42 45.62713 -0.32170 24099 ft 413 kts
2026-04-30 12:42 45.65594 -0.32303 24100 ft 418 kts 349°
2026-04-30 12:43 45.68321 -0.33748 24102 ft 421 kts 330°
2026-04-30 12:43 45.70667 -0.36198 24128 ft 411 kts 322°
2026-04-30 12:43 45.72864 -0.38731 24094 ft 402 kts 321°
2026-04-30 12:43 45.75026 -0.41239 24093 ft 398 kts 321°
2026-04-30 12:44 45.77188 -0.43735 24100 ft 400 kts 322°
2026-04-30 12:44 45.79369 -0.46238 23849 ft 401 kts 322°
2026-04-30 12:44 45.81531 -0.48706 23510 ft 394 kts 322°
2026-04-30 12:44 45.83665 -0.51136 23104 ft 388 kts 322°
2026-04-30 12:45 45.85759 -0.53515 22701 ft 381 kts 322°
2026-04-30 12:45 45.87798 -0.55831 22329 ft 375 kts 322°
2026-04-30 12:45 45.89830 -0.58142 21939 ft 370 kts 322°
2026-04-30 12:45 45.91836 -0.60423 21562 ft 365 kts 322°
2026-04-30 12:46 45.93816 -0.62678 21194 ft 361 kts 322°
2026-04-30 12:46 45.95777 -0.64912 20830 ft 360 kts 322°
2026-04-30 12:46 45.97738 -0.67149 20468 ft 359 kts 322°
2026-04-30 12:46 45.99712 -0.69402 20106 ft 367 kts 322°
2026-04-30 12:47 46.01726 -0.71704 19738 ft 372 kts 322°
2026-04-30 12:47 46.03746 -0.74015 19351 ft 368 kts 322°
2026-04-30 12:47 46.05731 -0.76290 18990 ft 364 kts 322°
2026-04-30 12:47 46.07704 -0.78551 18609 ft 361 kts 321°
2026-04-30 12:48 46.09633 -0.80765 18212 ft 357 kts 321°
2026-04-30 12:48 46.11569 -0.82988 17794 ft 352 kts 321°
2026-04-30 12:48 46.13474 -0.85179 17415 ft 347 kts 321°
2026-04-30 12:48 46.15349 -0.87336 17053 ft 342 kts 321°
2026-04-30 12:49 46.17198 -0.89465 16694 ft 338 kts 321°
2026-04-30 12:49 46.19020 -0.91566 16347 ft 334 kts 321°
2026-04-30 12:49 46.20825 -0.93648 16004 ft 329 kts 321°
2026-04-30 12:49 46.22602 -0.95697 15785 ft 324 kts 321°
2026-04-30 12:50 46.24368 -0.97733 15488 ft 325 kts 321°
2026-04-30 12:50 46.26146 -0.99786 15166 ft 332 kts 321°
2026-04-30 12:50 46.27975 -1.01899 14815 ft 340 kts 321°
2026-04-30 12:50 46.29821 -1.04034 14453 ft 338 kts 321°
2026-04-30 12:51 46.31647 -1.06147 14089 ft 333 kts 320°
2026-04-30 12:51 46.33422 -1.08203 13726 ft 329 kts 321°
2026-04-30 12:51 46.35196 -1.10260 13344 ft 325 kts 320°
2026-04-30 12:51 46.36957 -1.12303 12993 ft 323 kts 321°
2026-04-30 12:52 46.38704 -1.14333 12593 ft 320 kts 320°
2026-04-30 12:52 46.40426 -1.16334 12257 ft 315 kts 320°
2026-04-30 12:52 46.42126 -1.18313 11917 ft 311 kts 320°
2026-04-30 12:52 46.43808 -1.20271 11583 ft 308 kts 320°
2026-04-30 12:53 46.45475 -1.22215 11257 ft 306 kts 320°
2026-04-30 12:53 46.47138 -1.24155 10927 ft 308 kts 321°
2026-04-30 12:53 46.48798 -1.26094 10601 ft 312 kts 321°
2026-04-30 12:53 46.50495 -1.28076 10427 ft 313 kts 321°
2026-04-30 12:54 46.52179 -1.30045 10278 ft 306 kts 321°
2026-04-30 12:54 46.53809 -1.31952 10139 ft 295 kts 321°
2026-04-30 12:54 46.55388 -1.33800 9905 ft 289 kts 321°
2026-04-30 12:54 46.56947 -1.35627 9613 ft 287 kts 320°
2026-04-30 12:55 46.58494 -1.37442 9338 ft 284 kts 320°
2026-04-30 12:55 46.60093 -1.39104 9024 ft 283 kts 335°
2026-04-30 12:55 46.61953 -1.39940 8759 ft 278 kts 346°
2026-04-30 12:55 46.63797 -1.40612 8484 ft 275 kts 346°
2026-04-30 12:56 46.65646 -1.41295 8214 ft 273 kts 345°
2026-04-30 12:56 46.67480 -1.41987 7938 ft 271 kts 345°
2026-04-30 12:56 46.69303 -1.42680 7660 ft 269 kts 345°
2026-04-30 12:56 46.71086 -1.43466 7381 ft 267 kts 333°
2026-04-30 12:57 46.72600 -1.44999 7132 ft 263 kts 320°
2026-04-30 12:57 46.74023 -1.46653 6872 ft 261 kts 319°
2026-04-30 12:57 46.75435 -1.48305 6604 ft 260 kts 319°
2026-04-30 12:57 46.76829 -1.49936 6336 ft 261 kts 319°
2026-04-30 12:58 46.78255 -1.51598 6035 ft 262 kts 320°
2026-04-30 12:58 46.79682 -1.53256 5783 ft 262 kts 320°
2026-04-30 12:58 46.81114 -1.54917 5499 ft 264 kts 320°
2026-04-30 12:58 46.82561 -1.56595 5162 ft 266 kts 320°
2026-04-30 12:59 46.84000 -1.58264 4962 ft 260 kts 320°
2026-04-30 12:59 46.85397 -1.59883 4837 ft 253 kts 320°
2026-04-30 12:59 46.86754 -1.61455 4716 ft 245 kts 320°
2026-04-30 12:59 46.88075 -1.62988 4600 ft 238 kts 320°
2026-04-30 13:00 46.89364 -1.64485 4497 ft 237 kts 321°
2026-04-30 13:00 46.90667 -1.65999 4273 ft 240 kts 321°
2026-04-30 13:00 46.91950 -1.67490 4067 ft 231 kts 321°
2026-04-30 13:00 46.93191 -1.68933 3817 ft 224 kts 321°
2026-04-30 13:01 46.94398 -1.70337 3584 ft 218 kts 321°
2026-04-30 13:01 46.95574 -1.71705 3374 ft 212 kts 321°
2026-04-30 13:01 46.96706 -1.72994 3166 ft 199 kts 326°
2026-04-30 13:01 46.97969 -1.73460 3011 ft 188 kts 11°
2026-04-30 13:02 46.99199 -1.72904 3013 ft 186 kts 22°
2026-04-30 13:02 47.00422 -1.72237 2982 ft 188 kts 23°
2026-04-30 13:02 47.01603 -1.71506 2784 ft 181 kts 27°
2026-04-30 13:02 47.02721 -1.70695 2561 ft 177 kts 29°
2026-04-30 13:03 47.03795 -1.69879 2339 ft 170 kts 30°
2026-04-30 13:03 47.04822 -1.69094 2106 ft 161 kts 30°
2026-04-30 13:03 47.05793 -1.68351 1930 ft 153 kts 29°
2026-04-30 13:03 47.06744 -1.67623 1711 ft 155 kts 30°
2026-04-30 13:04 47.07704 -1.66887 1553 ft 161 kts 30°
2026-04-30 13:04 47.08714 -1.66124 1309 ft 155 kts 29°
2026-04-30 13:04 47.09648 -1.65407 1134 ft 152 kts 28°
2026-04-30 13:04 47.10568 -1.64699 979 ft 148 kts 30°
2026-04-30 13:05 47.11476 -1.64005 738 ft 145 kts 29°
2026-04-30 13:05 47.12364 -1.63326 536 ft 148 kts 30°
2026-04-30 13:05 47.13299 -1.62612 319 ft 152 kts 31°
2026-04-30 13:06 47.15025 -1.61294 89 ft 108 kts 27°
2026-04-30 13:06 47.15531 -1.60909 89 ft 51 kts 27°
2026-04-30 13:06 47.15673 -1.60779 88 ft 14 kts 62°
2026-04-30 13:06 47.15649 -1.60669 87 ft 12 kts 126°
2026-04-30 13:07 47.15601 -1.60573 89 ft 11 kts 126°
2026-04-30 13:07 47.15555 -1.60479 91 ft 11 kts 126°
2026-04-30 13:07 47.15518 -1.60382 94 ft 11 kts 100°
2026-04-30 13:07 47.15542 -1.60300 95 ft 7 kts 39°
2026-04-30 13:08 47.15575 -1.60262 92 ft 11 kts 51°
2026-04-30 13:08 47.15573 -1.60162 90 ft 7 kts 118°
2026-04-30 13:08 47.15554 -1.60131 90 ft 2 kts 163°
2026-04-30 13:08 47.15535 -1.60142 89 ft 5 kts 213°
2026-04-30 13:09 47.15513 -1.60160 89 ft 0 kts 206°
2026-04-30 13:09 47.15512 -1.60160 89 ft 0 kts 206°